Time,TemperatureF,DewpointF,PressureIn,WindDirection,WindDirectionDegrees,WindSpeedMPH,WindSpeedGustMPH,Humidity,HourlyPrecipIn,Conditions,Clouds,dailyrainin,SoftwareType,DateUTC
2013-12-10 00:02:00,18.3,15.1,30.34,WNW,293,0.0,0.0,87,0.00,,,0.00,meteohub,2013-12-10 06:02:00,
2013-12-10 00:07:00,18.3,15.1,30.34,WNW,293,0.0,0.0,87,0.00,,,0.00,meteohub,2013-12-10 06:07:00,
2013-12-10 00:12:00,18.1,14.9,30.34,WNW,293,0.0,0.0,87,0.00,,,0.00,meteohub,2013-12-10 06:12:00,
2013-12-10 00:17:00,18.1,14.9,30.34,NNW,338,0.0,0.0,87,0.00,,,0.00,meteohub,2013-12-10 06:17:00,
2013-12-10 00:22:00,18.1,14.9,30.35,WSW,248,0.0,0.0,87,0.00,,,0.00,meteohub,2013-12-10 06:22:00,
2013-12-10 00:27:00,17.8,14.5,30.36,WNW,293,0.0,0.0,87,0.00,,,0.00,meteohub,2013-12-10 06:27:00,
2013-12-10 00:33:00,17.8,14.5,30.36,WSW,248,0.0,0.0,87,0.00,,,0.00,meteohub,2013-12-10 06:33:00,
2013-12-10 00:38:00,17.6,14.4,30.36,West,270,0.0,0.0,87,0.00,,,0.00,meteohub,2013-12-10 06:38:00,
2013-12-10 00:43:00,17.6,14.4,30.35,West,270,0.0,0.0,87,0.00,,,0.00,meteohub,2013-12-10 06:43:00,
2013-12-10 00:48:00,17.4,14.2,30.35,West,270,0.0,0.0,87,0.00,,,0.00,meteohub,2013-12-10 06:48:00,
2013-12-10 00:53:00,17.4,14.2,30.35,West,270,0.0,0.0,87,0.00,,,0.00,meteohub,2013-12-10 06:53:00,
2013-12-10 00:58:00,17.4,14.2,30.35,NW,315,0.0,0.0,87,0.00,,,0.00,meteohub,2013-12-10 06:58:00,
2013-12-10 01:03:00,17.4,14.2,30.35,NW,315,0.0,0.0,87,0.00,,,0.00,meteohub,2013-12-10 07:03:00,
2013-12-10 01:08:00,17.2,14.0,30.35,West,270,0.0,0.0,87,0.00,,,0.00,meteohub,2013-12-10 07:08:00,
2013-12-10 01:13:00,17.4,14.2,30.35,West,270,0.0,0.0,87,0.00,,,0.00,meteohub,2013-12-10 07:13:00,
2013-12-10 01:18:00,17.1,13.8,30.35,SW,225,0.0,0.0,87,0.00,,,0.00,meteohub,2013-12-10 07:18:00,
2013-12-10 01:23:00,17.1,13.8,30.35,WSW,248,0.0,0.0,87,0.00,,,0.00,meteohub,2013-12-10 07:23:00,
2013-12-10 01:28:00,16.9,13.6,30.35,West,270,0.0,0.0,87,0.00,,,0.00,meteohub,2013-12-10 07:28:00,
2013-12-10 01:33:00,16.9,13.6,30.35,NW,315,0.0,0.0,87,0.00,,,0.00,meteohub,2013-12-10 07:33:00,
2013-12-10 01:38:00,16.7,13.5,30.35,WSW,248,0.0,0.0,87,0.00,,,0.00,meteohub,2013-12-10 07:38:00,
2013-12-10 01:43:00,16.7,13.5,30.36,NW,315,0.0,0.0,87,0.00,,,0.00,meteohub,2013-12-10 07:43:00,
2013-12-10 01:48:00,16.7,13.5,30.36,WSW,248,0.0,0.0,87,0.00,,,0.00,meteohub,2013-12-10 07:48:00,
2013-12-10 01:53:00,16.3,13.1,30.36,NW,315,0.0,0.0,87,0.00,,,0.00,meteohub,2013-12-10 07:53:00,
2013-12-10 01:58:00,16.0,12.7,30.37,WNW,293,0.0,0.0,87,0.00,,,0.00,meteohub,2013-12-10 07:58:00,
2013-12-10 02:03:00,16.0,12.7,30.37,West,270,0.0,0.0,87,0.00,,,0.00,meteohub,2013-12-10 08:03:00,
2013-12-10 02:08:00,15.6,12.4,30.37,West,270,0.0,0.0,87,0.00,,,0.00,meteohub,2013-12-10 08:08:00,
2013-12-10 02:13:00,15.4,12.2,30.37,NW,315,0.0,0.0,87,0.00,,,0.00,meteohub,2013-12-10 08:13:00,
2013-12-10 02:18:00,15.3,12.0,30.37,NW,315,0.0,0.0,87,0.00,,,0.00,meteohub,2013-12-10 08:18:00,
2013-12-10 02:23:00,14.9,11.5,30.37,West,270,0.0,0.0,86,0.00,,,0.00,meteohub,2013-12-10 08:23:00,
2013-12-10 02:28:00,14.5,11.1,30.37,NNE,23,0.0,0.0,86,0.00,,,0.00,meteohub,2013-12-10 08:28:00,
2013-12-10 02:33:00,14.5,11.1,30.37,WNW,293,0.0,0.0,86,0.00,,,0.00,meteohub,2013-12-10 08:33:00,
2013-12-10 02:38:00,13.8,10.4,30.38,SE,135,0.0,0.0,86,0.00,,,0.00,meteohub,2013-12-10 08:38:00,
2013-12-10 02:43:00,13.8,10.4,30.37,SE,135,0.0,0.0,86,0.00,,,0.00,meteohub,2013-12-10 08:43:00,
2013-12-10 02:48:00,13.1,9.7,30.37,SE,135,0.0,0.0,86,0.00,,,0.00,meteohub,2013-12-10 08:48:00,
2013-12-10 02:53:00,12.7,9.3,30.37,ESE,113,0.0,0.0,86,0.00,,,0.00,meteohub,2013-12-10 08:53:00,
2013-12-10 02:58:00,12.4,9.0,30.38,SE,135,0.0,0.0,86,0.00,,,0.00,meteohub,2013-12-10 08:58:00,
2013-12-10 03:03:00,11.8,8.2,30.39,ESE,113,0.0,0.0,85,0.00,,,0.00,meteohub,2013-12-10 09:03:00,
2013-12-10 03:04:00,11.7,8.1,30.39,ESE,113,0.0,0.0,85,0.00,,,0.00,meteohub,2013-12-10 09:04:00,
2013-12-10 03:09:00,11.3,7.7,30.39,ESE,113,0.0,0.0,85,0.00,,,0.00,meteohub,2013-12-10 09:09:00,
2013-12-10 03:14:00,10.9,7.3,30.39,South,180,0.0,0.0,85,0.00,,,0.00,meteohub,2013-12-10 09:14:00,
2013-12-10 03:19:00,10.4,6.8,30.39,West,270,0.0,0.0,85,0.00,,,0.00,meteohub,2013-12-10 09:19:00,
2013-12-10 03:24:00,9.9,6.3,30.40,ESE,113,0.0,0.0,85,0.00,,,0.00,meteohub,2013-12-10 09:24:00,
2013-12-10 03:29:00,9.5,5.9,30.40,ESE,113,0.0,0.0,85,0.00,,,0.00,meteohub,2013-12-10 09:29:00,
2013-12-10 03:34:00,9.0,5.4,30.40,ESE,113,0.0,0.0,85,0.00,,,0.00,meteohub,2013-12-10 09:34:00,
2013-12-10 03:39:00,8.8,5.2,30.40,ESE,113,0.0,0.0,85,0.00,,,0.00,meteohub,2013-12-10 09:39:00,
2013-12-10 03:44:00,8.4,4.8,30.40,NW,315,0.0,0.0,85,0.00,,,0.00,meteohub,2013-12-10 09:44:00,
2013-12-10 03:49:00,8.1,4.5,30.40,NNW,338,0.0,0.0,85,0.00,,,0.00,meteohub,2013-12-10 09:49:00,
2013-12-10 03:54:00,7.5,3.9,30.40,NNW,338,0.0,0.0,85,0.00,,,0.00,meteohub,2013-12-10 09:54:00,
2013-12-10 03:59:00,7.3,3.7,30.40,NNE,23,0.0,0.0,85,0.00,,,0.00,meteohub,2013-12-10 09:59:00,
2013-12-10 04:04:00,6.8,3.2,30.43,ESE,113,0.0,0.0,85,0.00,,,0.00,meteohub,2013-12-10 10:04:00,
2013-12-10 04:09:00,6.8,3.2,30.43,SSE,158,0.0,0.0,85,0.00,,,0.00,meteohub,2013-12-10 10:09:00,
2013-12-10 04:14:00,6.8,3.2,30.43,SSE,158,0.0,0.0,85,0.00,,,0.00,meteohub,2013-12-10 10:14:00,
2013-12-10 04:19:00,6.6,3.0,30.43,SSW,203,0.0,0.0,85,0.00,,,0.00,meteohub,2013-12-10 10:19:00,
2013-12-10 04:24:00,6.6,3.0,30.42,West,270,0.0,0.0,85,0.00,,,0.00,meteohub,2013-12-10 10:24:00,
2013-12-10 04:29:00,6.6,3.4,30.42,South,180,0.0,0.0,86,0.00,,,0.00,meteohub,2013-12-10 10:29:00,
2013-12-10 04:34:00,6.8,3.6,30.42,SSW,203,0.0,0.0,86,0.00,,,0.00,meteohub,2013-12-10 10:34:00,
2013-12-10 04:39:00,6.8,3.6,30.42,WSW,248,0.0,0.0,86,0.00,,,0.00,meteohub,2013-12-10 10:39:00,
2013-12-10 04:44:00,7.0,3.7,30.41,South,180,0.0,0.0,86,0.00,,,0.00,meteohub,2013-12-10 10:44:00,
2013-12-10 04:49:00,7.3,4.1,30.41,SSE,158,0.0,0.0,86,0.00,,,0.00,meteohub,2013-12-10 10:49:00,
2013-12-10 04:54:00,7.3,4.1,30.41,SE,135,0.0,0.0,86,0.00,,,0.00,meteohub,2013-12-10 10:54:00,
2013-12-10 04:59:00,7.3,4.1,30.39,SSW,203,0.0,0.0,86,0.00,,,0.00,meteohub,2013-12-10 10:59:00,
2013-12-10 05:04:00,7.3,4.1,30.39,SSE,158,0.0,0.0,86,0.00,,,0.00,meteohub,2013-12-10 11:04:00,
2013-12-10 05:09:00,7.0,3.7,30.39,SSE,158,0.0,0.0,86,0.00,,,0.00,meteohub,2013-12-10 11:09:00,
2013-12-10 05:14:00,7.0,3.7,30.39,SSE,158,0.0,0.0,86,0.00,,,0.00,meteohub,2013-12-10 11:14:00,
2013-12-10 05:19:00,6.6,3.4,30.39,SW,225,0.0,0.0,86,0.00,,,0.00,meteohub,2013-12-10 11:19:00,
2013-12-10 05:24:00,6.3,3.0,30.39,SW,225,0.0,0.0,86,0.00,,,0.00,meteohub,2013-12-10 11:24:00,
2013-12-10 05:29:00,5.5,1.9,30.39,SSE,158,0.0,0.0,85,0.00,,,0.00,meteohub,2013-12-10 11:29:00,
2013-12-10 05:34:00,5.4,1.8,30.39,SSE,158,0.0,0.0,85,0.00,,,0.00,meteohub,2013-12-10 11:34:00,
2013-12-10 05:39:00,5.2,1.6,30.39,ENE,68,0.0,0.0,85,0.00,,,0.00,meteohub,2013-12-10 11:39:00,
2013-12-10 05:45:00,5.0,1.4,30.39,ESE,113,0.0,0.0,85,0.00,,,0.00,meteohub,2013-12-10 11:45:00,
2013-12-10 05:50:00,4.8,1.2,30.39,SE,135,0.0,0.0,85,0.00,,,0.00,meteohub,2013-12-10 11:50:00,
2013-12-10 05:54:00,4.5,1.0,30.39,NE,45,0.0,0.0,85,0.00,,,0.00,meteohub,2013-12-10 11:54:00,
2013-12-10 06:00:00,4.1,0.7,30.39,NE,45,0.0,0.0,85,0.00,,,0.00,meteohub,2013-12-10 12:00:00,
2013-12-10 06:05:00,3.9,0.5,30.41,NE,45,0.0,0.0,85,0.00,,,0.00,meteohub,2013-12-10 12:05:00,
2013-12-10 06:10:00,3.6,0.1,30.41,NE,45,0.0,0.0,85,0.00,,,0.00,meteohub,2013-12-10 12:10:00,
2013-12-10 06:15:00,3.4,0.0,30.41,NE,45,0.0,0.0,85,0.00,,,0.00,meteohub,2013-12-10 12:15:00,
2013-12-10 06:20:00,3.0,-0.4,30.43,NE,45,0.0,0.0,85,0.00,,,0.00,meteohub,2013-12-10 12:20:00,
2013-12-10 06:25:00,3.0,-0.4,30.43,NE,45,0.0,0.0,85,0.00,,,0.00,meteohub,2013-12-10 12:25:00,
2013-12-10 06:30:00,2.7,-0.8,30.43,NE,45,0.0,0.0,85,0.00,,,0.00,meteohub,2013-12-10 12:30:00,
2013-12-10 06:35:00,2.7,-0.8,30.43,NE,45,0.0,0.0,85,0.00,,,0.00,meteohub,2013-12-10 12:35:00,
2013-12-10 06:40:00,2.7,-0.8,30.44,NE,45,0.0,0.0,85,0.00,,,0.00,meteohub,2013-12-10 12:40:00,
2013-12-10 06:45:00,2.3,-1.1,30.44,NE,45,0.0,0.0,85,0.00,,,0.00,meteohub,2013-12-10 12:45:00,
2013-12-10 06:50:00,2.3,-1.1,30.44,NE,45,0.0,0.0,85,0.00,,,0.00,meteohub,2013-12-10 12:50:00,
2013-12-10 06:55:00,1.9,-1.5,30.45,NE,45,0.0,0.0,85,0.00,,,0.00,meteohub,2013-12-10 12:55:00,
2013-12-10 07:00:00,1.6,-1.8,30.43,NE,45,0.0,0.0,85,0.00,,,0.00,meteohub,2013-12-10 13:00:00,
2013-12-10 07:05:00,1.6,-1.8,30.43,NE,45,0.0,0.0,85,0.00,,,0.00,meteohub,2013-12-10 13:05:00,
2013-12-10 07:10:00,1.2,-2.2,30.43,NE,45,0.0,0.0,85,0.00,,,0.00,meteohub,2013-12-10 13:10:00,
2013-12-10 07:15:00,1.2,-2.2,30.43,NE,45,0.0,0.0,85,0.00,,,0.00,meteohub,2013-12-10 13:15:00,
2013-12-10 07:20:00,0.9,-2.6,30.43,SSE,158,0.0,0.0,85,0.00,,,0.00,meteohub,2013-12-10 13:20:00,
2013-12-10 07:25:00,0.9,-2.6,30.43,West,270,0.0,0.0,85,0.00,,,0.00,meteohub,2013-12-10 13:25:00,
2013-12-10 07:30:00,1.0,-2.4,30.43,West,270,0.0,0.0,85,0.00,,,0.00,meteohub,2013-12-10 13:30:00,
2013-12-10 07:35:00,1.0,-2.4,30.43,South,180,0.0,0.0,85,0.00,,,0.00,meteohub,2013-12-10 13:35:00,
2013-12-10 07:40:00,1.0,-2.4,30.43,SW,225,0.0,0.0,85,0.00,,,0.00,meteohub,2013-12-10 13:40:00,
2013-12-10 07:45:00,1.2,-2.2,30.43,SW,225,0.0,0.0,85,0.00,,,0.00,meteohub,2013-12-10 13:45:00,
2013-12-10 07:50:00,1.2,-2.2,30.43,SW,225,0.0,0.0,85,0.00,,,0.00,meteohub,2013-12-10 13:50:00,
2013-12-10 07:55:00,1.6,-1.8,30.43,West,270,0.0,0.0,85,0.00,,,0.00,meteohub,2013-12-10 13:55:00,
2013-12-10 08:00:00,1.6,-1.8,30.44,SSW,203,0.0,0.0,85,0.00,,,0.00,meteohub,2013-12-10 14:00:00,
2013-12-10 08:05:00,3.0,-0.2,30.44,SSW,203,0.0,0.0,86,0.00,,,0.00,meteohub,2013-12-10 14:05:00,
2013-12-10 08:10:00,4.1,1.0,30.43,South,180,0.0,0.0,87,0.00,,,0.00,meteohub,2013-12-10 14:10:00,
2013-12-10 08:15:00,4.8,1.8,30.43,SW,225,0.0,0.0,87,0.00,,,0.00,meteohub,2013-12-10 14:15:00,
2013-12-10 08:20:00,5.4,2.3,30.43,South,180,0.0,0.0,87,0.00,,,0.00,meteohub,2013-12-10 14:20:00,
2013-12-10 08:25:00,6.6,3.6,30.43,SW,225,0.0,0.0,87,0.00,,,0.00,meteohub,2013-12-10 14:25:00,
2013-12-10 08:30:00,7.5,4.6,30.42,SSE,158,0.0,0.0,88,0.00,,,0.00,meteohub,2013-12-10 14:30:00,
2013-12-10 08:35:00,9.1,6.3,30.42,SW,225,0.0,0.0,88,0.00,,,0.00,meteohub,2013-12-10 14:35:00,
2013-12-10 08:40:00,10.2,7.7,30.41,SW,225,0.0,0.0,89,0.00,,,0.00,meteohub,2013-12-10 14:40:00,
2013-12-10 08:46:00,11.3,8.8,30.41,SW,225,0.0,0.0,89,0.00,,,0.00,meteohub,2013-12-10 14:46:00,
2013-12-10 08:51:00,12.0,9.3,30.41,WSW,248,0.0,0.0,89,0.00,,,0.00,meteohub,2013-12-10 14:51:00,
2013-12-10 08:56:00,12.6,9.9,30.40,South,180,0.0,0.0,89,0.00,,,0.00,meteohub,2013-12-10 14:56:00,
2013-12-10 09:01:00,13.1,10.2,30.41,WSW,248,0.0,0.0,88,0.00,,,0.00,meteohub,2013-12-10 15:01:00,
2013-12-10 09:06:00,13.1,10.2,30.41,West,270,0.0,0.0,88,0.00,,,0.00,meteohub,2013-12-10 15:06:00,
2013-12-10 09:11:00,13.5,10.6,30.40,SSW,203,0.0,0.0,88,0.00,,,0.00,meteohub,2013-12-10 15:11:00,
2013-12-10 09:16:00,13.8,10.9,30.40,South,180,0.0,0.0,88,0.00,,,0.00,meteohub,2013-12-10 15:16:00,
2013-12-10 09:21:00,13.8,10.8,30.45,SW,225,0.0,0.0,87,0.00,,,0.00,meteohub,2013-12-10 15:21:00,
2013-12-10 09:26:00,14.0,10.9,30.45,SSW,203,0.0,0.0,87,0.00,,,0.00,meteohub,2013-12-10 15:26:00,
2013-12-10 09:31:00,14.5,11.3,30.45,NE,45,0.0,0.0,87,0.00,,,0.00,meteohub,2013-12-10 15:31:00,
2013-12-10 09:36:00,14.7,11.5,30.45,WNW,293,0.0,0.0,87,0.00,,,0.00,meteohub,2013-12-10 15:36:00,
2013-12-10 09:41:00,15.3,12.0,30.49,NNW,338,0.0,0.0,87,0.00,,,0.00,meteohub,2013-12-10 15:41:00,
2013-12-10 09:46:00,15.6,12.2,30.49,WSW,248,0.0,0.0,86,0.00,,,0.00,meteohub,2013-12-10 15:46:00,
2013-12-10 09:51:00,16.3,12.6,30.48,WSW,248,0.0,0.0,85,0.00,,,0.00,meteohub,2013-12-10 15:51:00,
2013-12-10 09:56:00,16.7,12.7,30.48,SW,225,0.0,0.0,84,0.00,,,0.00,meteohub,2013-12-10 15:56:00,
2013-12-10 10:01:00,17.1,12.7,30.48,SW,225,0.0,0.0,83,0.00,,,0.00,meteohub,2013-12-10 16:01:00,
2013-12-10 10:06:00,17.6,13.1,30.48,WSW,248,0.0,0.0,82,0.00,,,0.00,meteohub,2013-12-10 16:06:00,
2013-12-10 10:11:00,17.8,12.9,30.48,SE,135,0.0,0.0,81,0.00,,,0.00,meteohub,2013-12-10 16:11:00,
2013-12-10 10:16:00,18.1,13.1,30.47,NE,45,0.0,0.0,80,0.00,,,0.00,meteohub,2013-12-10 16:16:00,
2013-12-10 10:21:00,18.5,13.1,30.46,WSW,248,0.0,0.0,79,0.00,,,0.00,meteohub,2013-12-10 16:21:00,
2013-12-10 10:26:00,19.2,13.8,30.46,West,270,0.0,0.0,79,0.00,,,0.00,meteohub,2013-12-10 16:26:00,
2013-12-10 10:31:00,19.6,13.8,30.46,WSW,248,0.0,0.0,78,0.00,,,0.00,meteohub,2013-12-10 16:31:00,
2013-12-10 10:36:00,19.6,13.6,30.46,West,270,0.0,0.0,77,0.00,,,0.00,meteohub,2013-12-10 16:36:00,
2013-12-10 10:41:00,19.8,13.6,30.46,SW,225,0.0,0.0,77,0.00,,,0.00,meteohub,2013-12-10 16:41:00,
2013-12-10 10:46:00,20.3,13.6,30.46,South,180,0.0,0.0,75,0.00,,,0.00,meteohub,2013-12-10 16:46:00,
2013-12-10 10:51:00,20.3,13.6,30.46,WSW,248,0.0,0.0,75,0.00,,,0.00,meteohub,2013-12-10 16:51:00,
2013-12-10 10:56:00,20.3,13.1,30.46,WSW,248,0.0,0.0,73,0.00,,,0.00,meteohub,2013-12-10 16:56:00,
2013-12-10 11:01:00,20.7,13.6,30.45,West,270,0.0,0.0,74,0.00,,,0.00,meteohub,2013-12-10 17:01:00,
2013-12-10 11:06:00,21.0,14.4,30.45,West,270,2.0,0.0,75,0.00,,,0.00,meteohub,2013-12-10 17:06:00,
2013-12-10 11:11:00,21.4,14.4,30.45,West,270,0.0,2.0,74,0.00,,,0.00,meteohub,2013-12-10 17:11:00,
2013-12-10 11:16:00,21.4,14.0,30.45,South,180,0.0,2.0,73,0.00,,,0.00,meteohub,2013-12-10 17:16:00,
2013-12-10 11:21:00,21.7,14.2,30.45,NW,315,0.0,2.0,72,0.00,,,0.00,meteohub,2013-12-10 17:21:00,
2013-12-10 11:26:00,22.1,14.5,30.45,SSW,203,0.0,0.0,72,0.00,,,0.00,meteohub,2013-12-10 17:26:00,
2013-12-10 11:31:00,22.3,14.9,30.45,WSW,248,0.0,0.0,73,0.00,,,0.00,meteohub,2013-12-10 17:31:00,
2013-12-10 11:36:00,22.6,14.9,30.45,West,270,0.0,0.0,72,0.00,,,0.00,meteohub,2013-12-10 17:36:00,
2013-12-10 11:41:00,23.2,15.3,30.44,NW,315,0.0,0.0,71,0.00,,,0.00,meteohub,2013-12-10 17:41:00,
2013-12-10 11:46:00,23.5,15.3,30.44,SW,225,0.0,0.0,70,0.00,,,0.00,meteohub,2013-12-10 17:46:00,
2013-12-10 11:51:00,23.9,15.6,30.44,WSW,248,0.0,0.0,70,0.00,,,0.00,meteohub,2013-12-10 17:51:00,
2013-12-10 11:56:00,23.9,15.6,30.44,WSW,248,0.0,0.0,70,0.00,,,0.00,meteohub,2013-12-10 17:56:00,
2013-12-10 12:01:00,24.6,16.5,30.43,NNW,338,0.0,0.0,71,0.00,,,0.00,meteohub,2013-12-10 18:01:00,
2013-12-10 12:06:00,24.6,16.5,30.43,WSW,248,0.0,0.0,71,0.00,,,0.00,meteohub,2013-12-10 18:06:00,
2013-12-10 12:11:00,24.6,16.5,30.43,WSW,248,0.0,0.0,71,0.00,,,0.00,meteohub,2013-12-10 18:11:00,
2013-12-10 12:16:00,25.3,17.2,30.43,West,270,0.0,0.0,71,0.00,,,0.00,meteohub,2013-12-10 18:16:00,
2013-12-10 12:21:00,25.7,17.6,30.40,WNW,293,0.0,0.0,71,0.00,,,0.00,meteohub,2013-12-10 18:21:00,
2013-12-10 12:26:00,25.9,17.8,30.40,WSW,248,0.0,0.0,71,0.00,,,0.00,meteohub,2013-12-10 18:26:00,
2013-12-10 12:31:00,26.1,17.6,30.40,West,270,0.0,0.0,70,0.00,,,0.00,meteohub,2013-12-10 18:31:00,
2013-12-10 12:36:00,26.2,17.8,30.40,WNW,293,0.0,0.0,70,0.00,,,0.00,meteohub,2013-12-10 18:36:00,
2013-12-10 12:41:00,26.4,18.0,30.39,WNW,293,0.0,0.0,70,0.03,,,0.03,meteohub,2013-12-10 18:41:00,
2013-12-10 12:46:00,26.8,18.0,30.39,WNW,293,0.0,0.0,69,0.03,,,0.03,meteohub,2013-12-10 18:46:00,
2013-12-10 12:51:00,26.8,18.0,30.39,WSW,248,0.0,0.0,69,0.03,,,0.03,meteohub,2013-12-10 18:51:00,
2013-12-10 12:56:00,26.8,18.0,30.39,West,270,0.0,0.0,69,0.03,,,0.03,meteohub,2013-12-10 18:56:00,
2013-12-10 13:01:00,27.1,18.3,30.39,West,270,0.0,0.0,69,0.03,,,0.03,meteohub,2013-12-10 19:01:00,
2013-12-10 13:07:00,27.1,18.3,30.39,West,270,0.0,0.0,69,0.03,,,0.03,meteohub,2013-12-10 19:07:00,
2013-12-10 13:12:00,27.3,18.5,30.38,North,-999,-999.0,0.0,69,0.03,,,0.03,meteohub,2013-12-10 19:12:00,
2013-12-10 13:17:00,27.9,19.0,30.38,North,-999,-999.0,0.0,69,0.03,,,0.03,meteohub,2013-12-10 19:17:00,
2013-12-10 13:22:00,27.7,18.9,30.37,North,-999,-999.0,0.0,69,0.03,,,0.03,meteohub,2013-12-10 19:22:00,
2013-12-10 13:27:00,27.9,19.0,30.36,North,-999,-999.0,-999.0,69,0.03,,,0.03,meteohub,2013-12-10 19:27:00,
2013-12-10 13:32:00,27.9,18.7,30.36,North,-999,-999.0,-999.0,68,0.03,,,0.03,meteohub,2013-12-10 19:32:00,
2013-12-10 13:37:00,28.2,19.0,30.36,North,-999,-999.0,-999.0,68,0.00,,,0.03,meteohub,2013-12-10 19:37:00,
2013-12-10 13:42:00,28.2,18.3,30.37,SSW,203,0.0,-999.0,66,0.00,,,0.03,meteohub,2013-12-10 19:42:00,
2013-12-10 13:47:00,28.2,18.3,30.37,WSW,248,0.0,0.0,66,0.00,,,0.03,meteohub,2013-12-10 19:47:00,
2013-12-10 13:52:00,28.4,18.9,30.37,WSW,248,0.0,0.0,67,0.00,,,0.03,meteohub,2013-12-10 19:52:00,
2013-12-10 13:57:00,28.6,19.0,30.37,NNW,338,0.0,0.0,67,0.00,,,0.03,meteohub,2013-12-10 19:57:00,
2013-12-10 14:02:00,28.9,19.4,30.36,WSW,248,0.0,0.0,67,0.00,,,0.03,meteohub,2013-12-10 20:02:00,
2013-12-10 14:07:00,28.9,19.0,30.36,SW,225,0.0,0.0,66,0.00,,,0.03,meteohub,2013-12-10 20:07:00,
2013-12-10 14:12:00,29.1,19.2,30.36,ENE,68,0.0,0.0,66,0.00,,,0.03,meteohub,2013-12-10 20:12:00,
2013-12-10 14:17:00,29.7,20.1,30.35,NNE,23,0.0,0.0,67,0.00,,,0.03,meteohub,2013-12-10 20:17:00,
2013-12-10 14:22:00,29.7,19.8,30.34,WSW,248,0.0,0.0,66,0.00,,,0.03,meteohub,2013-12-10 20:22:00,
2013-12-10 14:27:00,29.7,19.4,30.34,South,180,0.0,0.0,65,0.00,,,0.03,meteohub,2013-12-10 20:27:00,
2013-12-10 14:32:00,29.8,19.6,30.34,SW,225,0.0,0.0,65,0.00,,,0.03,meteohub,2013-12-10 20:32:00,
2013-12-10 14:37:00,29.8,19.6,30.34,SW,225,0.0,0.0,65,0.00,,,0.03,meteohub,2013-12-10 20:37:00,
2013-12-10 14:42:00,30.0,19.4,30.33,SW,225,0.0,0.0,64,0.00,,,0.03,meteohub,2013-12-10 20:42:00,
2013-12-10 14:47:00,30.0,19.8,30.33,West,270,0.0,0.0,65,0.00,,,0.03,meteohub,2013-12-10 20:47:00,
2013-12-10 14:52:00,30.0,19.4,30.33,SW,225,0.0,0.0,64,0.00,,,0.03,meteohub,2013-12-10 20:52:00,
2013-12-10 14:57:00,30.0,19.4,30.33,SW,225,0.0,0.0,64,0.00,,,0.03,meteohub,2013-12-10 20:57:00,
2013-12-10 15:02:00,30.0,19.4,30.33,SW,225,0.0,0.0,64,0.00,,,0.03,meteohub,2013-12-10 21:02:00,
2013-12-10 15:07:00,30.0,19.4,30.33,SW,225,0.0,0.0,64,0.00,,,0.03,meteohub,2013-12-10 21:07:00,
2013-12-10 15:12:00,30.2,19.6,30.33,SW,225,0.0,0.0,64,0.00,,,0.03,meteohub,2013-12-10 21:12:00,
2013-12-10 15:17:00,30.4,19.6,30.33,South,180,0.0,0.0,64,0.00,,,0.03,meteohub,2013-12-10 21:17:00,
2013-12-10 15:22:00,30.4,19.6,30.32,SW,225,0.0,0.0,64,0.00,,,0.03,meteohub,2013-12-10 21:22:00,
2013-12-10 15:27:00,30.4,19.6,30.32,SW,225,0.0,0.0,64,0.00,,,0.03,meteohub,2013-12-10 21:27:00,
2013-12-10 15:32:00,30.6,19.8,30.32,SW,225,0.0,0.0,64,0.00,,,0.03,meteohub,2013-12-10 21:32:00,
2013-12-10 15:37:00,30.7,19.9,30.32,East,90,0.0,0.0,64,0.00,,,0.03,meteohub,2013-12-10 21:37:00,
2013-12-10 15:42:00,30.7,19.9,30.31,SSE,158,0.0,0.0,64,0.00,,,0.03,meteohub,2013-12-10 21:42:00,
2013-12-10 15:47:00,31.1,20.3,30.31,ESE,113,0.0,0.0,64,0.00,,,0.03,meteohub,2013-12-10 21:47:00,
2013-12-10 15:52:00,31.1,20.3,30.31,ESE,113,0.0,2.0,64,0.00,,,0.03,meteohub,2013-12-10 21:52:00,
2013-12-10 15:57:00,31.1,20.3,30.31,SE,135,0.0,2.0,64,0.00,,,0.03,meteohub,2013-12-10 21:57:00,
2013-12-10 16:02:00,31.1,20.3,30.30,ESE,113,0.0,2.0,64,0.00,,,0.03,meteohub,2013-12-10 22:02:00,
2013-12-10 16:07:00,31.1,20.3,30.30,South,180,0.0,0.0,64,0.03,,,0.06,meteohub,2013-12-10 22:07:00,
2013-12-10 16:12:00,31.1,20.3,30.30,SSE,158,0.0,0.0,64,0.03,,,0.06,meteohub,2013-12-10 22:12:00,
2013-12-10 16:17:00,31.1,20.3,30.30,SW,225,0.0,0.0,64,0.03,,,0.06,meteohub,2013-12-10 22:17:00,
2013-12-10 16:22:00,31.1,20.3,30.31,WSW,248,0.0,0.0,64,0.03,,,0.06,meteohub,2013-12-10 22:22:00,
2013-12-10 16:27:00,31.1,20.3,30.31,South,180,0.0,0.0,64,0.06,,,0.08,meteohub,2013-12-10 22:27:00,
2013-12-10 16:32:00,30.7,19.9,30.32,WSW,248,0.0,0.0,64,0.06,,,0.08,meteohub,2013-12-10 22:32:00,
2013-12-10 16:37:00,30.7,19.9,30.32,WSW,248,0.0,0.0,64,0.06,,,0.08,meteohub,2013-12-10 22:37:00,
2013-12-10 16:41:00,30.4,19.6,30.33,SW,225,0.0,0.0,64,0.06,,,0.08,meteohub,2013-12-10 22:41:00,
2013-12-10 16:46:00,29.8,19.6,30.33,SSW,203,0.0,0.0,65,0.06,,,0.08,meteohub,2013-12-10 22:46:00,
2013-12-10 16:52:00,29.3,19.0,30.34,South,180,0.0,0.0,65,0.06,,,0.08,meteohub,2013-12-10 22:52:00,
2013-12-10 16:56:00,28.9,18.7,30.34,South,180,0.0,0.0,65,0.06,,,0.08,meteohub,2013-12-10 22:56:00,
2013-12-10 17:01:00,28.2,18.0,30.30,ESE,113,0.0,0.0,65,0.03,,,0.08,meteohub,2013-12-10 23:01:00,
2013-12-10 17:07:00,27.9,17.6,30.30,ESE,113,0.0,0.0,65,0.03,,,0.08,meteohub,2013-12-10 23:07:00,
2013-12-10 17:12:00,27.1,16.9,30.30,ESE,113,0.0,0.0,65,0.03,,,0.08,meteohub,2013-12-10 23:12:00,
2013-12-10 17:17:00,26.4,16.5,30.31,ESE,113,0.0,0.0,66,0.03,,,0.08,meteohub,2013-12-10 23:17:00,
2013-12-10 17:22:00,25.7,16.0,30.30,East,90,0.0,0.0,66,0.03,,,0.08,meteohub,2013-12-10 23:22:00,
2013-12-10 17:27:00,25.3,16.0,30.30,ESE,113,0.0,0.0,67,0.00,,,0.08,meteohub,2013-12-10 23:27:00,
2013-12-10 17:32:00,24.6,15.3,30.30,ESE,113,0.0,0.0,67,0.00,,,0.08,meteohub,2013-12-10 23:32:00,
2013-12-10 17:37:00,23.9,14.5,30.30,ESE,113,0.0,0.0,67,0.00,,,0.08,meteohub,2013-12-10 23:37:00,
2013-12-10 17:42:00,23.2,13.8,30.34,South,180,0.0,0.0,67,0.00,,,0.08,meteohub,2013-12-10 23:42:00,
2013-12-10 17:47:00,22.8,13.8,30.34,SSE,158,0.0,0.0,68,0.00,,,0.08,meteohub,2013-12-10 23:47:00,
2013-12-10 17:52:00,22.1,13.5,30.35,South,180,0.0,0.0,69,0.00,,,0.08,meteohub,2013-12-10 23:52:00,
2013-12-10 17:57:00,21.7,13.1,30.35,SSE,158,0.0,0.0,69,0.00,,,0.08,meteohub,2013-12-10 23:57:00,
2013-12-10 18:02:00,21.2,12.6,30.36,SSE,158,0.0,0.0,69,0.00,,,0.08,meteohub,2013-12-11 00:02:00,
2013-12-10 18:07:00,21.2,12.6,30.36,SSE,158,0.0,0.0,69,0.00,,,0.08,meteohub,2013-12-11 00:07:00,
2013-12-10 18:12:00,20.5,12.2,30.37,ESE,113,0.0,0.0,70,0.00,,,0.08,meteohub,2013-12-11 00:12:00,
2013-12-10 18:17:00,20.3,12.4,30.37,ESE,113,0.0,0.0,71,0.00,,,0.08,meteohub,2013-12-11 00:17:00,
2013-12-10 18:22:00,19.9,12.0,30.38,ESE,113,0.0,0.0,71,0.00,,,0.08,meteohub,2013-12-11 00:22:00,
2013-12-10 18:27:00,19.6,12.0,30.38,ESE,113,0.0,0.0,72,0.00,,,0.08,meteohub,2013-12-11 00:27:00,
2013-12-10 18:32:00,19.0,11.5,30.38,SW,225,0.0,0.0,72,0.00,,,0.08,meteohub,2013-12-11 00:32:00,
2013-12-10 18:37:00,18.9,11.3,30.38,SE,135,0.0,0.0,72,0.00,,,0.08,meteohub,2013-12-11 00:37:00,
2013-12-10 18:42:00,18.5,10.9,30.37,SE,135,0.0,0.0,72,0.00,,,0.08,meteohub,2013-12-11 00:42:00,
2013-12-10 18:47:00,18.1,10.6,30.37,ESE,113,0.0,0.0,72,0.00,,,0.08,meteohub,2013-12-11 00:47:00,
2013-12-10 18:52:00,17.6,10.4,30.37,SE,135,0.0,0.0,73,0.00,,,0.08,meteohub,2013-12-11 00:52:00,
2013-12-10 18:57:00,17.4,10.2,30.37,ESE,113,0.0,0.0,73,0.00,,,0.08,meteohub,2013-12-11 00:57:00,
2013-12-10 19:02:00,16.9,9.7,30.38,ESE,113,0.0,0.0,73,0.00,,,0.08,meteohub,2013-12-11 01:02:00,
2013-12-10 19:07:00,16.7,9.9,30.38,ESE,113,0.0,0.0,74,0.00,,,0.08,meteohub,2013-12-11 01:07:00,
2013-12-10 19:12:00,16.3,9.5,30.38,ESE,113,0.0,0.0,74,0.00,,,0.08,meteohub,2013-12-11 01:12:00,
2013-12-10 19:17:00,16.0,9.1,30.38,ESE,113,0.0,0.0,74,0.00,,,0.08,meteohub,2013-12-11 01:17:00,
2013-12-10 19:22:00,16.0,9.1,30.36,ESE,113,0.0,0.0,74,0.00,,,0.08,meteohub,2013-12-11 01:22:00,
2013-12-10 19:27:00,15.6,8.8,30.36,ESE,113,0.0,0.0,74,0.00,,,0.08,meteohub,2013-12-11 01:27:00,
2013-12-10 19:32:00,15.3,8.8,30.36,ESE,113,0.0,0.0,75,0.00,,,0.08,meteohub,2013-12-11 01:32:00,
2013-12-10 19:37:00,15.3,8.8,30.36,SSW,203,0.0,0.0,75,0.00,,,0.08,meteohub,2013-12-11 01:37:00,
2013-12-10 19:42:00,14.7,8.2,30.35,SSW,203,0.0,0.0,75,0.00,,,0.08,meteohub,2013-12-11 01:42:00,
2013-12-10 19:47:00,14.5,8.1,30.35,South,180,0.0,0.0,75,0.00,,,0.08,meteohub,2013-12-11 01:47:00,
2013-12-10 19:52:00,14.5,8.4,30.35,South,180,0.0,0.0,76,0.00,,,0.08,meteohub,2013-12-11 01:52:00,
2013-12-10 19:57:00,14.5,8.4,30.35,South,180,0.0,0.0,76,0.00,,,0.08,meteohub,2013-12-11 01:57:00,
2013-12-10 20:02:00,14.2,8.1,30.35,NNE,23,0.0,0.0,76,0.00,,,0.08,meteohub,2013-12-11 02:02:00,
2013-12-10 20:07:00,14.0,7.9,30.35,NNE,23,0.0,0.0,76,0.00,,,0.08,meteohub,2013-12-11 02:07:00,
2013-12-10 20:12:00,13.8,7.9,30.35,NNE,23,0.0,0.0,77,0.00,,,0.08,meteohub,2013-12-11 02:12:00,
2013-12-10 20:17:00,13.5,7.5,30.35,NNE,23,0.0,0.0,77,0.00,,,0.08,meteohub,2013-12-11 02:17:00,
2013-12-10 20:22:00,13.1,7.3,30.36,NNE,23,0.0,0.0,77,0.00,,,0.08,meteohub,2013-12-11 02:22:00,
2013-12-10 20:27:00,13.1,7.3,30.36,ESE,113,0.0,0.0,77,0.00,,,0.08,meteohub,2013-12-11 02:27:00,
2013-12-10 20:32:00,13.1,7.5,30.36,ESE,113,0.0,0.0,78,0.00,,,0.08,meteohub,2013-12-11 02:32:00,
2013-12-10 20:37:00,13.1,7.5,30.36,ESE,113,0.0,0.0,78,0.00,,,0.08,meteohub,2013-12-11 02:37:00,
2013-12-10 20:42:00,13.1,7.5,30.34,ESE,113,0.0,0.0,78,0.00,,,0.08,meteohub,2013-12-11 02:42:00,
2013-12-10 20:47:00,13.6,8.4,30.34,ESE,113,0.0,0.0,79,0.00,,,0.08,meteohub,2013-12-11 02:47:00,
2013-12-10 20:52:00,13.8,8.8,30.34,SE,135,0.0,0.0,80,0.00,,,0.08,meteohub,2013-12-11 02:52:00,
2013-12-10 20:57:00,13.8,8.6,30.34,SW,225,0.0,0.0,79,0.00,,,0.08,meteohub,2013-12-11 02:57:00,
2013-12-10 21:02:00,13.3,8.1,30.32,WSW,248,0.0,0.0,79,0.00,,,0.08,meteohub,2013-12-11 03:02:00,
2013-12-10 21:07:00,13.1,7.9,30.32,West,270,0.0,0.0,79,0.00,,,0.08,meteohub,2013-12-11 03:07:00,
2013-12-10 21:12:00,12.4,6.8,30.32,SW,225,0.0,0.0,78,0.00,,,0.08,meteohub,2013-12-11 03:12:00,
2013-12-10 21:17:00,12.4,6.8,30.32,ESE,113,0.0,0.0,78,0.00,,,0.08,meteohub,2013-12-11 03:17:00,
2013-12-10 21:22:00,12.4,7.2,30.32,East,90,0.0,0.0,79,0.00,,,0.08,meteohub,2013-12-11 03:22:00,
2013-12-10 21:27:00,12.4,7.2,30.32,WSW,248,0.0,0.0,79,0.00,,,0.08,meteohub,2013-12-11 03:27:00,
2013-12-10 21:32:00,12.4,7.3,30.32,SE,135,0.0,0.0,80,0.00,,,0.08,meteohub,2013-12-11 03:32:00,
2013-12-10 21:37:00,12.7,7.7,30.32,WNW,293,0.0,0.0,80,0.00,,,0.08,meteohub,2013-12-11 03:37:00,
2013-12-10 21:42:00,12.7,7.7,30.33,South,180,0.0,0.0,80,0.00,,,0.08,meteohub,2013-12-11 03:42:00,
2013-12-10 21:47:00,12.6,7.5,30.33,WSW,248,0.0,0.0,80,0.00,,,0.08,meteohub,2013-12-11 03:47:00,
2013-12-10 21:52:00,12.4,7.3,30.33,SW,225,0.0,0.0,80,0.00,,,0.08,meteohub,2013-12-11 03:52:00,
2013-12-10 21:57:00,12.4,7.3,30.33,South,180,0.0,0.0,80,0.00,,,0.08,meteohub,2013-12-11 03:57:00,
2013-12-10 22:02:00,12.6,7.5,30.33,WSW,248,0.0,0.0,80,0.00,,,0.08,meteohub,2013-12-11 04:02:00,
2013-12-10 22:07:00,12.7,7.7,30.33,WSW,248,0.0,0.0,80,0.00,,,0.08,meteohub,2013-12-11 04:07:00,
2013-12-10 22:12:00,13.1,8.4,30.32,ESE,113,0.0,0.0,81,0.00,,,0.08,meteohub,2013-12-11 04:12:00,
2013-12-10 22:17:00,13.8,9.1,30.32,WSW,248,0.0,0.0,81,0.00,,,0.08,meteohub,2013-12-11 04:17:00,
2013-12-10 22:22:00,13.8,9.3,30.32,West,270,0.0,0.0,82,0.00,,,0.08,meteohub,2013-12-11 04:22:00,
2013-12-10 22:27:00,13.5,8.8,30.33,South,180,0.0,0.0,81,0.00,,,0.08,meteohub,2013-12-11 04:27:00,
2013-12-10 22:32:00,13.5,8.8,30.33,SE,135,0.0,0.0,81,0.00,,,0.08,meteohub,2013-12-11 04:32:00,
2013-12-10 22:38:00,13.5,8.8,30.33,SE,135,0.0,0.0,81,0.00,,,0.08,meteohub,2013-12-11 04:38:00,
2013-12-10 22:43:00,13.8,9.1,30.33,NNE,23,0.0,0.0,81,0.00,,,0.08,meteohub,2013-12-11 04:43:00,
2013-12-10 22:48:00,13.8,9.1,30.33,East,90,0.0,0.0,81,0.00,,,0.08,meteohub,2013-12-11 04:48:00,
2013-12-10 22:53:00,13.8,9.3,30.33,ENE,68,0.0,0.0,82,0.00,,,0.08,meteohub,2013-12-11 04:53:00,
2013-12-10 22:57:00,14.0,9.5,30.33,NNE,23,0.0,0.0,82,0.00,,,0.08,meteohub,2013-12-11 04:57:00,
2013-12-10 23:01:00,14.0,9.5,30.33,ESE,113,0.0,0.0,82,0.00,,,0.08,meteohub,2013-12-11 05:01:00,
2013-12-10 23:06:00,14.0,9.3,30.33,East,90,0.0,0.0,81,0.00,,,0.08,meteohub,2013-12-11 05:06:00,
2013-12-10 23:11:00,14.2,9.7,30.33,NNE,23,0.0,0.0,82,0.00,,,0.08,meteohub,2013-12-11 05:11:00,
2013-12-10 23:16:00,14.2,9.7,30.33,WSW,248,0.0,0.0,82,0.00,,,0.08,meteohub,2013-12-11 05:16:00,
2013-12-10 23:21:00,14.2,9.7,30.33,ESE,113,0.0,0.0,82,0.00,,,0.08,meteohub,2013-12-11 05:21:00,
2013-12-10 23:26:00,13.8,9.3,30.33,ESE,113,0.0,0.0,82,0.00,,,0.08,meteohub,2013-12-11 05:26:00,
2013-12-10 23:31:00,13.8,9.1,30.33,NNW,338,0.0,0.0,81,0.00,,,0.08,meteohub,2013-12-11 05:31:00,
2013-12-10 23:36:00,13.6,9.1,30.33,East,90,0.0,0.0,82,0.00,,,0.08,meteohub,2013-12-11 05:36:00,
2013-12-10 23:41:00,13.5,9.0,30.34,ESE,113,0.0,0.0,82,0.00,,,0.08,meteohub,2013-12-11 05:41:00,
2013-12-10 23:47:00,13.5,9.0,30.34,ENE,68,0.0,0.0,82,0.00,,,0.08,meteohub,2013-12-11 05:47:00,
2013-12-10 23:52:00,13.5,9.0,30.34,WSW,248,0.0,0.0,82,0.00,,,0.08,meteohub,2013-12-11 05:52:00,
2013-12-10 23:57:00,13.1,8.6,30.34,ESE,113,0.0,0.0,82,0.00,,,0.08,meteohub,2013-12-11 05:57:00,